Weather History for Dallas/Ft Worth, TX

Change the Weather History Date:

Monday, May 5, 2014

  Actual Average Record
Temperature  
Mean Temperature 77 °F 71 °F  
Max Temperature 92 °F 81 °F 95 °F (1984)
Min Temperature 62 °F 61 °F 44 °F (1935)
Degree Days  
Heating Degree Days 0 1  
Month to date heating degree days 6 5  
Since 1 July heating degree days 2600 2281  
Cooling Degree Days 12 6  
Month to date cooling degree days 33 29  
Year to date cooling degree days 200 167  
Growing Degree Days 27 (Base 50)    
Moisture  
Dew Point 51 °F    
Average Humidity 44    
Maximum Humidity 60    
Minimum Humidity 28    
Precipitation  
Precipitation 0.00 in 0.16 in 3.50 in (1995)
Month to date precipitation 0.00 0.77  
Year to date precipitation 3.93 12.12  
Sea Level Pressure  
Sea Level Pressure 29.83 in    
Wind  
Wind Speed 18 mph (South)    
Max Wind Speed 28 mph    
Max Gust Speed 35 mph    
Visibility 10 miles    
Events      
T = Trace of Precipitation, MM = Missing Value Source: NWS Daily Summary

Daily Weather History Graph

Daily Weather History Graph

Search for Another Location

Airport:

Trip Planner

Search our weather history database for the weather conditions in past years. The results will help you decide how hot, cold, wet, or windy it might be!

Date:

Astronomy

May. 05, 2014 Rise Set
Actual Time 6:36 AM CDT 8:13 PM CDT
Civil Twilight 6:10 AM CDT 8:39 PM CDT
Nautical Twilight 5:38 AM CDT 9:11 PM CDT
Astronomical Twilight 5:05 AM CDT 9:45 PM CDT
Moon 11:56 AM CDT (5/5) 12:58 AM CDT (5/5)
Length of Visible Light 14h 29m
Length of Day
13h 36m
Waxing Crescent, 37% of the Moon is Illuminated
May 5
Waxing Crescent
May 6
First Quarter
May 14
Full
May 21
Last Quarter
May 28
New

Hourly Weather History & Observations

Time (CDT) Temp. Heat Index Dew Point Humidity Pressure Visibility Wind Dir Wind Speed Gust Speed Precip Events Conditions
12:53 AM 73.9 °F - 43.0 °F 33% 29.89 in 10.0 mi South 19.6 mph 28.8 mph N/A   Clear
1:53 AM 72.0 °F - 42.1 °F 34% 29.88 in 10.0 mi South 21.9 mph 27.6 mph N/A   Clear
2:53 AM 70.0 °F - 41.0 °F 35% 29.87 in 10.0 mi South 18.4 mph 26.5 mph N/A   Clear
3:53 AM 66.9 °F - 39.9 °F 37% 29.88 in 10.0 mi South 18.4 mph 25.3 mph N/A   Clear
4:53 AM 66.0 °F - 39.0 °F 37% 29.87 in 10.0 mi South 17.3 mph - N/A   Clear
5:53 AM 64.0 °F - 41.0 °F 43% 29.88 in 10.0 mi South 13.8 mph - N/A   Clear
6:53 AM 63.0 °F - 46.0 °F 54% 29.90 in 10.0 mi South 12.7 mph - N/A   Partly Cloudy
7:53 AM 64.9 °F - 50.0 °F 58% 29.90 in 10.0 mi South 15.0 mph - N/A   Partly Cloudy
8:53 AM 69.1 °F - 53.1 °F 57% 29.90 in 10.0 mi SSW 18.4 mph - N/A   Partly Cloudy
9:53 AM 73.9 °F - 54.0 °F 50% 29.89 in 10.0 mi South 18.4 mph - N/A   Partly Cloudy
10:53 AM 78.1 °F - 54.0 °F 43% 29.88 in 10.0 mi South 18.4 mph 26.5 mph N/A   Partly Cloudy
11:53 AM 82.9 °F 81.9 °F 54.0 °F 37% 29.88 in 10.0 mi South 19.6 mph - N/A   Partly Cloudy
12:53 PM 86.0 °F 84.5 °F 55.4 °F 35% 29.88 in 10.0 mi South 16.1 mph 26.5 mph N/A   Partly Cloudy
1:53 PM 89.1 °F 87.7 °F 57.0 °F 34% 29.82 in 10.0 mi South 21.9 mph 29.9 mph N/A   Partly Cloudy
2:53 PM 90.0 °F 87.7 °F 54.0 °F 29% 29.79 in 10.0 mi South 19.6 mph 31.1 mph N/A   Partly Cloudy
3:53 PM 90.0 °F 87.9 °F 55.0 °F 30% 29.77 in 10.0 mi SSE 20.7 mph 31.1 mph N/A   Clear
4:53 PM 91.0 °F 88.7 °F 54.0 °F 28% 29.75 in 10.0 mi South 21.9 mph 34.5 mph N/A   Clear
5:53 PM 90.0 °F 87.7 °F 54.0 °F 29% 29.73 in 10.0 mi South 25.3 mph 33.4 mph N/A   Clear
6:53 PM 87.1 °F 84.9 °F 53.1 °F 31% 29.73 in 10.0 mi South 23.0 mph 29.9 mph N/A   Clear
7:53 PM 84.0 °F 82.6 °F 54.0 °F 35% 29.73 in 10.0 mi SSE 13.8 mph 24.2 mph N/A   Clear
8:53 PM 82.0 °F 81.4 °F 55.0 °F 39% 29.73 in 10.0 mi South 17.3 mph - N/A   Partly Cloudy
9:53 PM 80.1 °F 80.1 °F 55.0 °F 42% 29.74 in 10.0 mi SSE 17.3 mph - N/A   Clear
10:53 PM 78.8 °F - 55.4 °F 44% 29.78 in 10.0 mi South 17.3 mph - N/A   Clear
11:53 PM 75.9 °F - 57.0 °F 52% 29.76 in 10.0 mi South 20.7 mph - N/A   Partly Cloudy